Miscellaneous Local Product
Issued by NWS North Platte, NE

Home | Current Version | Previous Version | Text Only | Print | Product List | Glossary On
Versions: 1 2 3 4 5 6 7 8 9 10 11 12 13 14 15 16 17 18 19 20 21 22 23 24 25 26 27 28 29 30 31 32 33 34 35 36 37 38 39 40 41 42 43 44 45 46 47 48 49 50
617
AXUS43 KLBF 210910
MISLBF


WESTERN AND NORTH CENTRAL NEBRASKA HOURLY WEATHER ROUNDUP
NATIONAL WEATHER SERVICE NORTH PLATTE NE
300 AM CST TUE FEB 21 2017

NOTE: "FAIR" INDICATES FEW OR NO CLOUDS BELOW 12,000 FEET WITH NO
SIGNIFICANT WEATHER AND/OR OBSTRUCTIONS TO VISIBILITY.

NOTE: STATIONS NOT REPORTING VARIABLES SUCH AS SKY/WEATHER OR
PRESSURE ARE PROVIDED BY RAWS AND APRS NETWORKS AND ARE NOT UNDER
NATIONAL WEATHER SERVICE QUALITY CONTROL.

...OBSERVATIONS IN AND NEAR THE EASTERN PANHANDLE OF NEBRASKA...

CITY           SKY/WX    TMP DP  RH WIND       PRES   REMARKS
PINE RIDGE     CLEAR     37  27  67 CALM      29.88R
CHADRON        CLEAR     41  26  55 S6        29.86S
ALLIANCE       CLOUDY    34  23  64 SW7       29.92S WCI  28
SIDNEY         CLOUDY    33  18  53 W8        29.95F WCI  26
CRESCENT LAKE    N/A     40  22  47 W7          N/A
$$

...OBSERVATIONS IN NORTHERN NEBRASKA AND FAR SOUTHERN SOUTH DAKOTA...

CITY           SKY/WX    TMP DP  RH WIND       PRES   REMARKS
WINNER         FAIR      46  28  49 S22       29.80F
VALENTINE      CLEAR     45  26  47 SW16      29.86F
THEDFORD       CLEAR     40  21  47 CALM      29.93F
AINSWORTH      CLEAR     42  25  50 SW14      29.89S
O`NEILL        CLEAR     37  31  77 SW6       29.91R WCI  32
ORD            CLEAR     29  25  85 CALM      29.93F
BROKEN BOW     CLEAR     30  25  81 CALM      29.95R
VALENTINE NWR    N/A     42  22  45 SW10        N/A
BUTTE            N/A     40  31  71 S9          N/A  WCI  34
HALSEY           N/A     41  20  43 S6          N/A
CHAMBERS         N/A     40  29  64 W6          N/A
EWING            N/A     35  31  85 CALM        N/A
$$

...OBSERVATIONS IN SOUTHWEST NEBRASKA AND FAR NORTHEAST COLORADO...

CITY           SKY/WX    TMP DP  RH WIND       PRES   REMARKS
HOLYOKE        FAIR      36  19  51 SW8       29.96  WCI  29
IMPERIAL       CLOUDY    33  18  53 SW6       29.97F WCI  28
OGALLALA       CLEAR     40  20  45 CALM      29.95F
NORTH PLATTE   CLOUDY    26  21  81 W3        29.96F
MCCOOK         CLOUDY    30  22  72 W6        29.99R WCI  24
LEXINGTON      CLOUDY    28  25  86 CALM      29.98R
STAPLETON        N/A     36  24  60 CALM        N/A
GOTHENBURG       N/A     38  24  57 CALM        N/A
CALLAWAY         N/A     41  27  56 S6          N/A
$$

...OBSERVATIONS IN CENTRAL LINCOLN COUNTY AREA...

CITY           SKY/WX    TMP DP  RH WIND       PRES   REMARKS
N.P. AIRPORT   CLOUDY    26  21  81 W3        29.96F
N.P. DOWNTOWN    N/A     32  25  76 CALM        N/A
N.P. SOUTHEAST   N/A     36  22  57 CALM        N/A
N.P. HILLCREST   N/A     40  23  51 NW3         N/A
$$

...SOME OBSERVATIONS FROM AROUND THE REGION...

CITY           SKY/WX    TMP DP  RH WIND       PRES   REMARKS
LARAMIE        CLOUDY    41  23  48 SW30G41   30.03S
CHEYENNE       CLOUDY    50  19  29 SW24G38   29.98S
DENVER         CLOUDY    44  11  26 S9        30.00S
AKRON          CLEAR     43  12  28 SW15      29.97F
SCOTTSBLUFF    CLOUDY    36  22  56 N3        29.93S
RAPID CITY     CLEAR     54  28  36 S13       29.79R
BISMARCK       PTCLDY    37  31  78 E6        29.69F WCI  32
PIERRE         CLEAR     35  27  72 CALM      29.75R
SIOUX FALLS    CLEAR     30  30 100 CALM      29.89S FOG
OMAHA          CLEAR     35  30  82 CALM      29.97R
GRAND ISLAND   CLEAR     38  34  85 SW5       29.97R WCI  34
KANSAS CITY    CLOUDY    50  46  86 N9        29.93S
WICHITA        CLEAR     46  41  82 N6        29.98R
OKLAHOMA CITY  CLEAR     50  45  83 N12       29.94S
DALLAS         PTCLDY    53  53 100 SW3       29.88F FOG
AMARILLO       CLOUDY    40  16  37 SW7       30.10F
DODGE CITY     CLOUDY    32  23  69 SW6       30.05R WCI  26
HAYS           CLOUDY    27  24  89 W7        30.02R WCI  19
GOODLAND       CLOUDY    42  14  32 SW16      30.00S
$$




USA.gov is the U.S. government's official web portal to all federal, state and local government web resources and services.